Probability
0 0 0 0 0 0 0 0 0 0 0 0 3 6 6 6 6 10 10 16 19 32 26 32 39 39 35 42 45 45 45 42 39 42 42 35 29 23 19 23 19 19 19 19
0 0 0 0 0 0 0 0 0 0 0 0 3 6 6 6 6 6 13 16 13 26 29 32 29 42 35 42 52 45 45 45 45 45 39 35 32 35 29 23 19 19 19 19
0 0 0 0 0 0 0 0 0 0 0 0 3 6 6 6 6 6 16 16 13 19 32 39 29 45 45 45 55 55 55 45 48 52 45 42 42 35 32 23 19 23 23 19
0 0 0 0 0 0 0 0 0 0 0 0 0 0 3 3 6 10 16 16 26 29 32 45 39 48 45 55 58 55 55 55 55 55 52 48 45 45 32 32 23 26 26 29
0 0 0 0 0 0 0 0 0 0 0 0 0 0 0 3 6 10 10 16 32 32 32 42 48 45 55 55 58 55 55 58 58 58 55 48 42 45 35 32 29 29 29 26
0 0 0 0 0 0 0 0 0 0 0 0 0 0 0 6 6 10 6 16 32 39 39 35 42 45 52 55 58 58 52 58 58 61 52 45 48 45 45 39 32 29 29 29
0 0 0 0 0 0 0 0 0 0 0 0 0 0 0 0 10 6 10 23 26 39 42 35 35 42 42 48 55 55 58 58 58 61 58 52 48 39 42 32 29 26 29 29
0 0 0 0 0 0 0 0 0 0 0 0 0 0 3 3 3 3 13 19 23 35 35 42 42 42 45 52 48 55 61 58 55 58 55 55 39 39 39 39 32 32 29 26
0 0 0 0 0 0 0 0 0 0 0 0 0 0 3 3 6 6 6 23 23 29 39 42 48 39 39 48 52 55 61 58 61 61 55 52 42 42 42 35 39 32 29 26
0 0 0 0 0 0 0 0 0 0 0 0 0 0 3 3 6 3 6 10 16 29 39 39 42 42 39 39 48 45 52 58 58 55 55 52 48 45 42 42 39 35 26 26
0 0 0 0 0 0 0 0 0 0 0 0 0 0 0 6 6 13 6 10 10 26 32 39 42 42 39 35 32 39 45 45 48 45 45 52 48 48 45 45 42 35 29 19
0 0 0 0 0 0 0 0 0 0 0 0 0 0 0 6 13 13 13 13 16 23 39 45 42 39 39 39 35 39 39 42 42 48 48 42 48 39 32 32 32 29 26 19
0 0 0 0 0 0 0 0 0 0 0 0 0 0 3 10 13 13 16 16 23 32 35 42 42 39 42 39 32 35 45 48 45 42 39 32 29 29 29 29 26 23 19 19
0 0 0 0 0 0 0 0 0 0 0 0 0 0 6 13 16 16 16 16 19 32 32 32 39 39 39 32 32 39 45 48 39 35 39 32 32 26 19 23 19 19 13 13
0 0 0 0 0 0 0 0 0 0 0 0 0 0 6 13 13 13 19 19 26 32 32 29 26 32 35 35 39 39 42 35 35 32 35 29 29 29 16 13 10 10 10 19
0 0 0 0 0 0 0 0 0 0 0 0 10 10 10 13 13 16 26 23 32 29 26 29 29 32 32 35 35 32 32 39 32 32 32 29 29 29 26 23 13 16 13 13
0 0 0 0 0 0 0 0 3 3 10 6 6 10 13 13 16 13 23 26 29 26 26 26 29 35 39 42 32 32 35 35 32 29 29 29 29 32 26 26 13 13 10 16
0 0 0 0 0 0 0 0 3 3 6 6 6 10 13 13 13 13 16 29 29 26 29 26 26 29 29 29 26 32 35 42 32 26 29 29 29 29 23 19 16 10 10 10
0 0 0 0 0 0 0 0 0 6 6 6 13 13 13 16 13 13 10 23 26 23 26 29 26 26 23 29 29 32 29 35 35 29 26 29 29 23 16 10 13 6 6 3
0 0 0 0 0 0 0 0 0 3 3 6 13 10 6 10 3 13 16 19 29 26 26 26 29 29 32 29 23 19 19 19 23 23 23 19 16 16 16 10 6 3 3 3
0 0 0 0 0 0 0 0 0 0 3 6 3 3 3 3 0 13 16 19 19 23 26 29 32 23 26 23 19 16 16 19 23 19 16 16 19 16 16 10 3 3 6 6
0 0 0 0 0 0 0 3 3 0 0 3 3 3 6 6 13 16 19 19 23 19 19 23 23 23 23 23 23 19 19 19 16 16 16 13 19 13 13 6 3 6 6 6
0 0 0 0 0 0 0 0 0 3 6 3 3 3 10 13 16 16 10 13 19 16 19 19 19 19 19 19 23 26 23 23 13 16 16 13 6 3 6 10 10 6 6 10
0 0 0 0 0 0 0 0 3 3 3 3 3 10 10 10 6 10 10 16 13 13 13 16 16 16 16 19 23 23 16 13 10 13 13 13 6 3 0 10 10 13 10 10
0 0 0 0 0 3 3 0 3 0 3 3 6 3 6 6 6 3 6 13 16 13 13 13 16 16 19 19 19 16 16 16 10 10 6 6 6 3 0 6 10 10 10 10
0 0 0 0 0 0 3 3 6 0 0 0 3 0 0 3 3 3 6 10 13 16 16 16 16 16 16 16 16 16 19 19 13 10 6 6 3 0 0 0 3 3 3 0
Height
5869 5873 5875 5878 5880 5882 5882 5883 5884 5886 5886 5886 5886 5888 5889 5889 5890 5890 5891 5891 5891 5891 5891 5891 5890 5890 5890 5889 5889 5888 5888 5886 5885 5884 5882 5881 5879 5877 5875 5874 5872 5870 5868 5867
5866 5869 5872 5872 5874 5876 5877 5878 5880 5881 5882 5882 5882 5884 5885 5886 5886 5887 5887 5888 5888 5889 5889 5888 5888 5888 5888 5887 5887 5886 5885 5885 5884 5882 5881 5880 5878 5876 5874 5872 5870 5868 5867 5865
5861 5865 5866 5867 5869 5871 5872 5874 5876 5877 5878 5878 5879 5880 5881 5882 5883 5884 5884 5885 5885 5886 5886 5886 5886 5885 5885 5885 5884 5884 5883 5882 5882 5881 5879 5878 5876 5874 5873 5871 5869 5867 5865 5863
5856 5858 5860 5862 5864 5866 5868 5870 5872 5872 5873 5874 5875 5875 5877 5878 5879 5880 5881 5881 5882 5883 5883 5884 5884 5883 5883 5882 5881 5881 5880 5880 5879 5878 5877 5876 5874 5873 5871 5869 5867 5865 5863 5861
5851 5853 5855 5857 5860 5862 5864 5866 5867 5868 5868 5869 5870 5870 5873 5874 5875 5877 5877 5878 5878 5879 5880 5880 5881 5880 5880 5879 5879 5878 5877 5877 5876 5875 5874 5873 5872 5870 5869 5867 5865 5863 5861 5859
5846 5848 5849 5852 5855 5857 5859 5860 5861 5862 5863 5865 5866 5866 5867 5869 5871 5872 5873 5874 5875 5875 5876 5877 5877 5877 5876 5876 5875 5875 5874 5874 5873 5872 5872 5870 5869 5868 5866 5864 5862 5861 5859 5857
5840 5842 5845 5847 5849 5851 5853 5855 5856 5856 5857 5859 5862 5861 5863 5863 5866 5867 5869 5870 5871 5872 5872 5873 5873 5873 5873 5873 5872 5871 5870 5870 5870 5869 5868 5867 5866 5865 5863 5862 5860 5858 5856 5855
5833 5837 5839 5841 5844 5846 5847 5849 5851 5852 5853 5855 5856 5856 5859 5860 5862 5863 5864 5865 5866 5867 5868 5869 5869 5869 5869 5868 5868 5868 5867 5866 5866 5866 5865 5864 5863 5862 5860 5859 5857 5856 5854 5852
5827 5831 5834 5836 5838 5840 5842 5843 5846 5848 5849 5850 5851 5853 5854 5856 5857 5858 5859 5861 5862 5862 5863 5864 5864 5864 5865 5865 5865 5864 5863 5863 5862 5862 5862 5861 5860 5859 5857 5856 5854 5853 5851 5849
5821 5825 5828 5831 5832 5834 5837 5839 5841 5842 5843 5844 5846 5848 5850 5851 5853 5854 5855 5856 5857 5857 5858 5859 5859 5860 5861 5861 5861 5860 5859 5859 5858 5858 5858 5857 5856 5854 5853 5851 5850 5849 5847 5845
5815 5818 5822 5824 5826 5828 5831 5833 5835 5836 5838 5840 5841 5845 5845 5847 5848 5849 5850 5851 5851 5853 5854 5854 5855 5855 5856 5856 5856 5856 5855 5855 5854 5854 5854 5853 5851 5850 5848 5847 5846 5844 5843 5841
5808 5811 5814 5817 5821 5823 5825 5827 5829 5831 5833 5834 5836 5841 5841 5842 5843 5844 5845 5845 5846 5848 5849 5849 5849 5850 5851 5851 5851 5851 5851 5851 5851 5850 5849 5848 5847 5845 5844 5842 5841 5840 5839 5837
5801 5804 5807 5811 5815 5817 5818 5820 5822 5825 5827 5829 5830 5835 5835 5836 5837 5838 5840 5841 5841 5842 5843 5843 5844 5845 5846 5846 5846 5847 5847 5847 5846 5846 5845 5844 5842 5840 5839 5837 5836 5835 5834 5833
5794 5797 5801 5804 5806 5809 5811 5814 5816 5818 5820 5822 5825 5828 5830 5831 5832 5833 5835 5836 5837 5837 5837 5838 5839 5840 5840 5841 5842 5842 5842 5842 5842 5841 5840 5839 5837 5836 5834 5833 5831 5830 5829 5829
5787 5790 5793 5797 5800 5802 5804 5807 5810 5811 5814 5817 5819 5822 5824 5826 5827 5828 5829 5830 5831 5832 5832 5832 5833 5834 5835 5836 5836 5837 5837 5837 5837 5836 5836 5834 5833 5831 5830 5828 5826 5825 5824 5824
5781 5783 5787 5790 5793 5796 5798 5800 5803 5805 5808 5810 5813 5816 5818 5819 5821 5822 5824 5825 5826 5827 5827 5827 5828 5829 5830 5830 5830 5831 5832 5832 5832 5831 5830 5830 5829 5827 5825 5823 5822 5821 5820 5819
5774 5778 5781 5784 5786 5788 5791 5794 5797 5799 5801 5804 5806 5810 5811 5813 5815 5817 5818 5819 5820 5821 5822 5822 5823 5824 5824 5824 5824 5825 5827 5827 5826 5826 5825 5825 5823 5822 5821 5819 5818 5816 5815 5815
5769 5772 5775 5777 5780 5782 5787 5788 5790 5792 5795 5797 5800 5803 5805 5807 5809 5811 5812 5813 5814 5815 5816 5817 5817 5817 5818 5819 5819 5819 5820 5821 5821 5821 5820 5819 5818 5816 5815 5815 5814 5812 5811 5810
5763 5765 5768 5770 5772 5775 5780 5781 5783 5785 5788 5791 5793 5796 5798 5800 5802 5803 5805 5807 5808 5810 5810 5811 5811 5811 5811 5812 5813 5813 5813 5814 5815 5815 5815 5814 5813 5812 5810 5809 5809 5808 5807 5806
5757 5759 5762 5764 5766 5769 5774 5775 5776 5779 5781 5784 5786 5788 5791 5793 5795 5797 5799 5801 5802 5803 5804 5805 5806 5806 5806 5806 5807 5807 5807 5808 5809 5809 5809 5808 5807 5807 5806 5805 5804 5803 5802 5801
5750 5752 5755 5757 5758 5762 5766 5768 5770 5772 5775 5777 5779 5781 5784 5786 5788 5791 5792 5794 5795 5797 5798 5799 5799 5800 5800 5800 5801 5802 5802 5803 5803 5803 5803 5802 5802 5801 5800 5800 5799 5798 5797 5796
5744 5746 5748 5751 5753 5758 5759 5761 5764 5765 5767 5770 5772 5774 5777 5779 5781 5783 5785 5787 5789 5790 5791 5792 5793 5794 5794 5794 5795 5796 5796 5797 5797 5797 5797 5796 5796 5795 5794 5794 5793 5792 5791 5790
5737 5740 5742 5745 5749 5751 5752 5754 5756 5758 5760 5763 5766 5768 5770 5772 5774 5776 5779 5780 5782 5783 5784 5785 5786 5787 5788 5788 5789 5790 5790 5790 5791 5791 5791 5790 5790 5789 5788 5788 5787 5786 5785 5785
5731 5734 5736 5738 5740 5743 5745 5747 5749 5751 5754 5756 5759 5761 5764 5766 5768 5770 5772 5774 5775 5776 5777 5778 5779 5780 5781 5781 5782 5783 5784 5784 5784 5784 5784 5784 5783 5783 5782 5782 5781 5780 5780 5779
5726 5728 5730 5731 5734 5736 5738 5740 5742 5745 5747 5750 5753 5755 5757 5760 5762 5764 5766 5767 5768 5770 5770 5771 5773 5774 5774 5775 5775 5776 5776 5777 5777 5777 5776 5776 5776 5776 5776 5775 5775 5774 5774 5773
5720 5722 5724 5726 5728 5730 5732 5734 5736 5739 5741 5743 5746 5748 5750 5752 5754 5756 5758 5760 5761 5763 5764 5765 5766 5767 5767 5768 5768 5769 5769 5770 5770 5770 5769 5769 5770 5770 5769 5769 5768 5767 5767 5767
Wind_Speed
23 22 22 21 20 20 20 19 17 15 15 16 16 16 16 14 14 13 12 12 12 12 11 12 12 12 12 11 11 11 11 10 9 10 10 10 10 10 9 10 10 10 10 10
22 21 20 21 21 21 20 20 18 17 16 17 17 16 15 14 13 13 12 12 12 11 11 11 12 12 12 11 10 10 10 9 9 10 10 10 10 10 10 10 10 11 10 10
21 19 21 21 21 22 21 20 19 19 17 18 18 17 15 15 15 14 14 14 13 12 11 11 12 13 13 11 10 9 10 10 10 10 10 10 10 10 11 11 11 11 10 10
21 21 21 22 22 21 21 19 18 19 19 19 20 19 17 17 16 15 15 15 14 13 13 12 12 13 12 11 10 10 10 11 11 10 10 10 10 10 11 11 11 11 11 11
21 21 22 22 21 21 20 19 19 20 21 21 21 22 20 19 18 16 16 15 14 13 13 13 14 14 13 12 11 11 11 12 12 11 10 11 10 10 11 11 11 11 11 11
21 22 23 22 22 22 20 20 20 20 22 22 20 22 20 20 19 17 16 15 14 14 14 14 14 13 13 13 12 12 12 12 12 11 11 11 10 10 11 12 12 12 11 11
22 23 23 23 23 22 22 22 21 22 22 22 20 22 21 18 17 17 15 15 15 15 15 15 15 15 15 14 13 12 12 11 12 12 12 12 11 12 12 12 12 12 11 11
24 24 23 23 23 23 22 23 23 23 22 20 20 22 20 17 16 15 15 16 16 16 16 16 16 17 16 14 14 13 12 11 12 13 13 12 12 12 12 13 12 12 12 12
24 24 23 23 22 24 23 23 23 23 22 22 21 20 18 17 17 16 16 17 17 16 16 17 16 16 15 14 14 13 13 12 13 13 13 13 13 13 13 13 13 14 13 12
24 24 24 23 23 24 24 23 23 24 24 24 22 21 19 19 18 18 18 17 17 17 18 17 15 15 15 14 14 14 13 13 13 13 14 14 14 14 14 14 14 15 14 14
24 25 24 25 25 24 24 24 24 24 25 24 24 22 20 20 19 19 19 19 18 18 19 18 16 15 15 15 15 14 14 13 14 14 15 15 15 15 15 15 15 15 14 14
24 25 26 26 25 24 24 25 25 26 26 26 26 24 20 19 19 20 20 20 20 19 20 18 17 16 16 16 16 15 14 15 15 16 16 16 16 16 16 16 16 15 14 15
25 27 27 27 27 26 25 25 26 26 27 27 28 24 22 21 21 21 21 21 21 21 20 19 18 17 17 18 18 17 16 16 16 17 17 17 17 17 17 16 17 15 14 15
27 28 28 28 27 27 27 26 25 26 28 28 27 25 23 23 22 21 21 21 21 20 19 19 18 17 18 19 19 18 18 17 17 18 18 18 18 18 17 16 17 16 15 15
28 29 28 28 28 28 28 27 27 28 28 28 28 26 25 25 24 22 21 21 21 22 20 19 19 19 19 19 19 19 18 18 18 18 18 18 18 18 17 17 17 16 16 16
28 28 28 28 28 28 29 28 28 29 29 28 28 27 25 25 25 24 22 22 22 22 21 20 20 20 20 20 19 19 18 18 19 19 19 18 18 18 17 17 16 16 16 16
26 27 28 27 26 28 29 28 27 28 29 29 29 28 26 25 25 25 24 23 23 23 23 21 21 21 21 20 20 20 19 19 19 19 19 19 19 18 17 16 15 15 16 16
26 27 27 27 26 29 27 27 28 29 29 29 29 29 28 26 26 26 26 25 24 23 24 24 23 21 20 21 21 21 20 19 19 19 19 20 19 18 16 16 16 16 16 17
25 26 27 27 28 28 27 27 28 29 29 29 30 29 29 28 26 27 27 25 25 24 24 24 24 23 22 21 21 21 21 20 19 20 20 19 19 19 17 16 17 17 17 17
24 25 26 28 29 29 28 28 28 29 29 29 30 29 29 29 28 26 25 25 24 25 25 25 25 24 23 23 23 22 21 20 21 20 20 20 19 19 18 17 18 18 18 18
24 25 25 26 27 28 28 29 29 30 29 28 28 29 29 29 27 26 26 25 24 24 25 25 24 24 24 23 23 23 22 21 21 21 21 21 20 20 19 19 19 19 18 18
24 25 25 24 26 26 25 27 29 30 30 29 27 28 29 29 28 27 26 26 25 26 26 26 25 25 25 25 23 23 22 22 22 21 22 22 21 21 21 20 20 20 19 19
24 25 24 24 24 25 25 26 28 30 30 29 29 28 29 30 29 27 26 26 27 27 27 27 26 26 25 24 23 23 23 23 22 22 22 22 23 23 22 21 21 21 21 21
22 22 23 25 24 24 25 25 28 29 30 30 29 28 29 30 29 27 27 26 26 25 26 26 25 25 25 25 24 23 23 24 24 24 23 23 23 23 23 23 22 21 21 21
23 22 22 22 22 24 24 24 25 28 29 29 29 29 29 29 29 28 26 26 26 26 25 24 25 25 25 24 24 24 24 25 25 25 24 24 24 23 23 24 23 22 21 21
19 19 20 22 21 23 24 23 24 25 26 27 29 29 29 29 28 27 27 27 26 26 26 25 25 25 25 25 25 25 24 24 24 25 25 24 23 23 24 24 23 22 22 22
Wind_Direction
229 230 230 230 233 235 236 238 239 240 246 251 252 253 255 265 271 274 280 287 290 290 295 298 301 302 304 303 306 314 316 319 325 330 333 335 337 339 339 338 337 333 330 330
231 232 231 230 231 233 234 237 238 237 241 247 251 251 253 258 272 274 275 283 288 292 296 297 302 304 300 300 301 307 310 314 320 323 323 328 331 333 334 334 333 332 329 326
233 230 230 230 231 232 234 237 237 236 238 245 251 251 252 257 266 270 272 276 281 289 293 294 297 297 295 296 295 298 301 308 314 318 317 319 324 327 327 327 328 329 327 326
231 228 230 230 231 231 232 235 234 234 239 242 248 252 251 254 262 265 272 273 277 283 288 293 292 293 293 291 290 293 295 300 307 312 313 315 319 323 326 325 323 324 326 326
231 229 231 231 232 232 233 233 234 234 239 241 244 253 253 251 255 259 265 269 274 278 281 286 289 292 285 284 285 289 291 293 301 305 308 310 316 320 324 326 325 321 321 323
232 231 232 232 232 232 230 231 235 237 238 240 243 249 252 248 250 253 261 266 273 277 280 284 289 293 287 281 282 283 286 287 293 296 298 303 309 315 320 323 324 320 320 321
234 232 233 233 232 232 231 231 234 235 237 239 238 244 249 245 243 247 256 265 271 275 280 283 284 287 288 282 279 279 277 280 287 290 292 296 303 312 314 318 320 319 318 317
235 232 234 234 234 234 233 234 236 238 239 237 238 242 248 245 245 250 256 262 270 275 278 280 282 282 281 273 275 275 275 277 285 290 289 295 301 306 309 312 315 316 314 314
238 236 235 237 236 233 233 235 237 239 240 238 239 243 244 244 246 251 254 260 268 271 270 272 276 280 275 271 271 274 273 272 277 283 288 292 296 299 302 304 307 310 312 311
237 236 235 235 234 232 233 233 233 234 236 239 240 239 239 242 246 250 252 259 267 269 273 274 275 274 271 268 266 269 271 273 276 285 289 292 294 298 301 301 302 303 304 305
237 236 233 232 232 231 230 231 235 236 237 239 241 240 241 242 243 247 251 259 265 268 272 273 276 272 270 267 267 267 270 275 281 286 288 291 294 297 298 296 297 299 299 301
235 237 233 232 231 229 232 234 235 236 237 239 241 242 242 242 244 246 248 256 262 267 270 271 272 271 268 268 270 270 278 279 282 285 288 289 291 294 297 296 295 294 295 295
231 234 233 230 229 229 230 232 236 238 238 239 239 239 239 240 242 244 248 254 260 266 265 267 270 268 265 266 269 271 275 279 282 285 288 290 293 294 297 295 294 292 292 292
230 233 233 230 229 229 231 231 233 235 237 238 238 239 238 238 243 247 249 252 261 266 267 267 265 265 264 266 267 269 272 277 280 283 285 288 293 294 295 294 292 288 288 289
231 232 231 229 229 231 233 232 231 232 234 237 237 238 239 240 244 247 249 253 262 264 266 263 263 262 263 262 265 267 270 275 278 279 282 286 290 291 291 291 293 289 287 289
232 233 232 229 228 230 233 233 234 233 234 236 237 237 239 241 245 248 249 252 257 263 261 261 262 263 262 261 261 264 267 272 276 278 280 283 285 289 289 289 289 289 290 290
229 232 233 231 229 230 230 231 232 233 235 236 237 237 239 242 245 248 251 254 256 260 262 260 259 259 263 266 263 263 265 270 273 276 279 281 283 286 286 285 287 286 287 289
233 233 234 232 230 230 230 230 231 234 235 236 237 237 238 241 245 248 252 255 257 259 259 258 257 258 260 263 269 266 265 266 269 273 277 279 281 283 281 281 286 286 286 288
235 235 235 235 234 232 230 232 233 233 235 237 238 238 239 239 244 248 251 254 256 257 258 258 259 262 262 261 264 267 268 265 266 271 274 277 278 278 278 279 283 284 285 287
232 234 236 238 238 237 234 235 237 238 237 237 236 238 238 240 244 249 251 253 255 257 259 260 260 263 265 265 265 265 265 267 269 271 274 276 279 278 276 277 279 281 283 285
233 235 236 238 238 237 235 236 238 240 241 238 236 235 238 240 244 249 253 254 256 259 259 260 261 263 266 267 265 262 263 266 268 270 274 276 279 279 279 277 277 279 281 284
235 235 236 238 239 237 237 237 239 243 243 240 238 237 239 241 244 249 251 255 258 261 262 263 263 262 264 265 265 264 264 266 268 270 273 276 278 279 279 277 277 278 280 281
237 236 238 240 240 240 239 239 239 240 240 240 239 240 242 242 243 249 252 255 257 261 262 262 262 262 264 266 267 266 266 266 267 270 272 274 277 278 278 277 276 276 279 281
242 238 240 239 237 238 240 240 238 238 240 243 243 245 243 242 244 248 252 256 259 261 259 259 260 262 263 264 264 265 266 266 266 268 270 272 274 275 276 277 278 278 279 280
242 247 242 239 240 241 242 241 239 238 240 242 244 246 246 245 245 247 252 254 256 258 260 261 261 262 261 263 264 265 267 268 267 268 268 269 271 273 275 276 277 275 276 277
243 247 245 242 240 239 238 240 240 241 245 247 247 245 246 247 250 252 252 254 256 256 257 259 260 261 262 263 265 266 267 266 267 267 267 269 272 274 275 277 277 277 277 276